Minangkabau Airport

Jump to: basic info | weather | frequencies | runways | comments

Related pages: nearby airports | nearby navaids | notams | map

Basic information (top)

Codes: PDG WIPT
Location: lon -0.786917, lat 100.280998, elev 18 ft / 5 m msl
Status: medium_airport
Scheduled airline service: yes
Links: Wikipedia Mobile

Weather (top)

Current conditions (rec'd 2014/09/22 11:30Z):

WIPT 221130Z 18009KT 8000 SCT019 29/24 Q1008

Airport forecast (rec'd 2014/09/22 06:00Z):

TAF WIPT 220500Z 2206/2306 20007KT 9999 FEW022 
      BECMG 2215/2218 18004KT 8000 SCT019 
      BECMG 2220/2222 VRB02KT 7000 FEW020

Frequencies (top)

Verify before use: may be inaccurate or out of date.

APP: 124 MHz (PADANG APP)
ATIS: 127.25 MHz (ATIS)
TWR: 118.3 MHz (MINANG TWR)

Runways (top)

15/33: 9,020 x 148 ft (2,749 x 45 m) — paved — lighted

Latest comments (top)

No comments yet for Minangkabau Airport

More... (top)

See also NOTAMs and nearby airports and navaids, or visit the Minangkabau Airport page at the main OurAirports website..